Location: �clusier
(49.9361°N, 2.7869°E)
Time: 02:49:44
(UTC+00:00)

Cosmos 1452 Rocket - Visible Passes

Search period start: 23 October 2021 00:00
Search period end: 02 November 2021 00:00
Orbit: 766 x 775 km, 74.1° (Epoch: 22 October)

Date Brightness Start Highest point End Pass type
(mag) Time Alt. Az. Time Alt. Az. Time Alt. Az.
23 Oct 6.1 04:34:21 10° N 04:37:46 17° NE 04:41:10 10° E visible
24 Oct 6.3 03:58:54 10° NNE 04:01:04 12° NE 04:03:13 10° ENE visible
24 Oct 4.5 05:39:22 10° NNW 05:44:33 50° ENE 05:49:40 10° SE visible
25 Oct 5.2 05:03:19 10° N 05:08:09 34° NE 05:12:56 10° ESE visible
26 Oct 5.7 04:27:22 10° N 04:31:39 24° NE 04:35:54 10° ESE visible
27 Oct 6.1 03:51:33 10° N 03:55:03 17° NE 03:58:31 10° E visible
27 Oct 3.7 05:32:45 10° NNW 05:38:05 79° ENE 05:43:22 10° SSE visible
28 Oct 6.3 03:16:03 10° NNE 03:18:20 13° NE 03:20:37 10° ENE visible
28 Oct 4.4 04:56:36 10° NNW 05:01:48 52° ENE 05:06:56 10° SE visible
29 Oct 5.0 04:20:32 10° N 04:25:24 35° NE 04:30:13 10° ESE visible
30 Oct 5.6 03:44:34 10° N 03:48:55 25° NE 03:53:12 10° ESE visible
30 Oct 3.5 05:26:15 10° NNW 05:31:31 66° WSW 05:36:43 10° S visible
31 Oct 6.0 03:08:45 10° N 03:12:18 18° NE 03:15:51 10° E visible
31 Oct 3.6 04:50:00 10° NNW 04:55:19 82° ENE 05:00:36 10° SSE visible
31 Oct 5.5 17:52:51 10° SE 17:53:12 11° SE 17:53:12 11° SE visible
31 Oct 5.4 19:32:05 10° SSW 19:33:38 20° SSW 19:33:38 20° SSW visible
01 Nov 6.3 02:33:13 10° N 02:35:36 13° NE 02:38:00 10° ENE visible
01 Nov 4.2 04:13:49 10° NNW 04:19:02 54° ENE 04:24:11 10° SE visible
01 Nov 4.5 05:56:31 10° NW 06:00:50 26° W 06:05:06 10° SSW visible
01 Nov 4.1 18:55:59 10° S 18:59:35 43° S 18:59:35 43° S visible
01 Nov 6.2 20:39:26 10° WSW 20:40:01 12° WSW 20:40:01 12° WSW visible
